SCP
1 1 1 1 1 1 1 1 1 1 1 1 2 2 2 2 2 3 3 1 0 0 0 1 1 1 1 1 1 1 1 1 1 1 1 1 1 1
1 1 1 1 1 1 1 1 1 1 1 2 2 2 2 2 2 3 3 2 1 0 0 0 1 1 1 1 1 1 1 1 1 1 1 1 1 1
1 1 1 1 1 1 1 1 1 1 1 2 2 3 3 3 2 3 3 2 2 1 0 0 0 0 0 0 0 0 0 0 0 0 0 0 0 0
1 1 1 1 1 1 1 1 1 1 1 2 2 3 3 3 3 3 3 2 2 1 0 0 0 0 0 0 0 0 0 0 0 0 0 0 0 0
1 1 1 1 1 1 1 1 1 1 1 1 2 2 3 3 3 3 2 3 2 1 0 0 0 0 0 0 0 0 0 0 0 0 0 0 0 0
1 1 1 1 1 1 1 1 1 1 1 1 1 2 2 3 3 3 2 3 3 2 1 1 0 0 0 0 0 0 0 0 0 0 0 0 0 0
1 1 1 1 1 0 0 1 1 1 1 1 1 2 2 2 3 2 2 3 3 2 2 2 1 1 1 0 0 0 0 0 0 0 0 0 0 0
1 1 1 0 0 0 0 0 0 1 1 1 1 2 2 2 2 2 2 2 2 3 3 2 2 2 2 1 0 0 0 0 0 0 0 0 0 0
1 1 1 0 0 0 0 0 0 0 1 1 1 1 2 3 3 3 2 2 2 3 3 3 3 3 2 1 1 0 0 0 0 0 0 0 0 0
0 0 0 0 0 0 0 0 0 0 0 1 1 1 1 2 3 3 3 3 3 3 2 2 3 3 2 2 1 0 0 0 0 0 0 0 0 0
0 0 0 0 0 0 0 0 0 0 0 0 0 0 1 1 2 2 2 2 3 2 2 2 2 2 2 2 1 0 0 0 0 0 0 0 0 0
0 0 0 0 0 0 0 0 0 0 0 0 0 0 0 0 1 1 2 2 2 2 2 2 2 2 2 1 1 0 0 0 0 0 0 0 0 0
0 0 0 0 0 0 0 0 0 0 1 1 1 1 1 0 1 1 2 2 2 2 2 2 2 2 1 1 0 0 0 0 0 0 0 0 0 0
0 0 0 0 0 0 0 0 0 0 1 1 1 1 1 1 1 1 1 2 2 2 2 2 2 2 2 1 1 0 0 1 1 0 0 0 0 0
0 0 0 0 0 0 0 0 0 0 1 1 1 1 1 1 1 1 1 1 2 1 2 2 2 2 2 1 1 0 0 1 1 1 1 1 0 0
0 0 0 0 0 0 0 0 0 0 0 1 1 1 1 1 1 1 1 2 2 1 1 2 2 2 2 2 1 1 1 1 1 1 1 1 1 0
0 0 0 0 0 0 0 0 0 0 0 0 1 1 1 1 1 1 1 2 1 1 1 1 1 2 2 2 1 1 1 1 1 1 1 1 1 0
0 0 0 0 0 0 0 0 0 0 0 0 0 1 1 1 1 1 1 1 1 1 1 1 1 1 1 1 1 1 1 1 1 1 1 0 0 0
0 0 0 0 0 0 0 0 0 0 0 0 0 1 1 1 1 1 1 1 1 1 1 1 1 1 0 0 0 1 1 1 1 1 0 0 0 0
0 0 0 0 0 0 0 0 0 0 0 0 1 1 1 1 1 1 1 1 1 1 1 1 1 1 1 1 0 0 0 0 1 1 1 0 0 0
0 0 0 0 0 0 0 0 0 0 0 0 1 1 1 1 0 0 0 0 0 1 1 1 1 1 1 1 1 0 0 0 0 0 0 0 0 0
0 0 0 0 0 0 0 0 0 0 0 0 1 1 1 0 0 0 0 0 0 0 1 1 1 1 1 1 1 1 1 0 0 0 0 0 0 0
0 0 0 0 0 0 0 0 0 0 0 0 1 1 1 0 0 0 0 0 0 0 1 1 1 1 1 1 1 1 1 0 0 0 0 0 0 0
Wind_Speed
10 10 9 7 7 7 7 6 7 8 8 6 5 5 6 6 7 10 12 16 18 18 18 19 19 19 19 19 19 19 18 17 17 18 18 19 20 20
8 9 9 8 7 7 7 7 6 7 8 5 4 4 5 6 6 9 11 14 17 17 18 18 18 18 18 18 18 18 17 16 16 16 16 16 16 17
10 10 10 10 8 7 7 7 7 7 8 7 5 4 5 6 5 6 8 9 10 15 16 16 16 16 17 17 17 17 16 16 16 15 15 15 15 15
10 10 10 9 9 8 7 8 7 7 7 8 6 5 6 6 5 5 6 8 8 12 14 14 14 14 14 15 15 15 15 15 14 14 14 14 14 14
10 10 10 10 9 8 8 8 7 7 7 7 6 4 4 4 4 5 4 3 6 9 11 12 12 13 13 13 13 13 13 13 13 13 13 12 12 12
10 10 10 10 10 9 8 9 8 7 7 7 6 5 4 5 5 5 4 4 4 5 6 7 10 11 12 12 12 12 12 12 12 12 11 11 11 10
10 9 10 9 8 8 8 7 7 7 7 6 5 5 4 5 5 4 5 4 4 4 5 6 7 8 9 11 11 11 11 11 11 11 11 11 10 9
10 9 9 9 9 9 10 9 8 8 8 6 5 5 5 5 4 5 5 6 4 5 5 5 5 6 6 7 9 11 11 11 11 11 11 10 10 9
10 8 8 7 7 9 10 11 10 9 8 8 7 5 5 4 5 6 6 6 5 6 5 5 5 5 4 6 11 10 10 10 11 10 10 10 9 9
10 9 9 7 7 7 8 8 8 7 8 8 6 5 4 4 4 4 4 4 3 4 5 4 4 4 4 5 9 9 9 9 9 10 10 9 9 8
9 8 8 8 4 5 7 7 7 6 4 3 1 1 1 1 3 3 5 5 4 4 4 4 5 4 4 4 7 8 8 8 9 10 10 10 10 8
6 6 5 6 3 4 7 8 8 7 6 6 5 4 5 5 5 6 6 6 5 4 5 5 6 6 4 3 5 7 7 8 8 9 9 9 9 7
6 5 2 6 6 6 7 7 6 5 6 6 6 6 5 5 5 6 5 5 5 4 6 6 6 6 5 5 4 5 6 7 7 7 8 8 6 5
6 5 1 4 5 6 6 4 4 5 6 6 5 6 6 5 5 5 5 5 4 4 5 6 5 6 6 6 5 6 6 6 6 7 7 9 6 3
5 4 3 3 5 7 8 7 7 8 7 6 6 6 5 5 4 4 5 4 4 5 6 6 5 5 6 6 6 7 6 6 7 7 7 8 7 7
6 4 7 7 8 6 6 9 9 7 6 6 6 5 5 6 6 5 5 5 5 5 6 7 6 6 6 5 7 8 7 7 8 7 7 6 7 7
5 4 4 4 6 6 6 6 7 7 7 7 6 6 6 6 6 6 6 6 6 6 6 6 6 5 4 4 6 7 8 8 8 8 7 6 6 6
6 5 4 4 4 5 5 6 6 6 6 6 6 6 6 6 6 6 7 7 7 7 7 7 6 5 3 3 4 7 7 7 8 9 8 7 7 7
5 5 3 3 3 4 4 4 5 5 5 6 6 6 6 6 6 6 7 7 7 7 7 7 8 8 8 7 7 7 7 7 8 8 8 7 7 7
4 4 3 3 3 3 4 4 4 4 5 6 6 6 7 7 7 7 7 8 7 7 7 7 8 9 9 7 6 7 9 8 8 8 8 6 4 5
3 3 3 3 3 3 3 4 4 4 5 6 6 7 7 7 7 7 7 8 8 8 9 8 7 8 5 4 5 6 7 6 4 6 8 7 7 7
3 3 3 3 3 3 3 4 4 5 5 6 6 7 7 7 7 9 8 7 8 8 8 7 8 8 8 8 8 8 8 7 5 6 5 2 4 7
3 3 3 3 3 3 3 4 5 5 5 5 6 6 7 7 7 7 8 8 7 8 8 7 7 7 8 9 8 7 10 10 8 7 4 4 5 5
Wind_Direction
260 250 248 252 249 250 251 255 265 268 258 247 238 229 231 232 214 210 213 192 194 197 200 203 204 204 203 204 205 207 209 211 213 216 217 217 218 220
262 266 261 257 253 250 250 248 249 262 268 263 253 256 243 239 219 220 216 190 192 195 199 201 202 201 200 200 200 201 203 206 209 211 211 212 214 217
263 257 254 255 256 254 248 248 248 247 260 267 258 255 244 241 229 222 213 201 190 189 193 196 196 196 195 195 196 196 199 203 206 208 209 209 211 214
262 261 260 255 247 252 252 250 250 250 255 263 262 248 239 230 221 217 210 201 192 175 182 186 188 188 189 189 190 192 196 199 202 204 204 205 208 211
265 260 257 256 253 250 249 249 248 248 247 257 259 248 236 218 209 207 198 192 188 166 168 173 177 180 183 184 185 186 190 194 198 200 201 202 205 208
266 260 256 252 250 247 248 245 247 251 247 248 252 243 225 206 196 186 181 177 174 164 158 162 164 170 176 179 181 184 187 189 193 195 195 196 198 200
266 260 256 254 269 267 265 257 249 245 245 240 242 240 223 198 194 183 173 160 159 159 154 159 163 172 173 173 175 176 178 182 184 186 187 188 190 192
269 263 257 241 238 238 253 264 269 257 254 247 238 237 230 212 196 185 170 162 166 169 163 162 165 168 172 171 159 164 170 174 177 178 179 180 182 184
270 264 259 248 230 238 226 226 237 245 250 255 249 243 234 218 200 194 191 181 168 160 159 156 164 160 160 132 141 155 163 167 170 172 172 172 172 174
262 259 257 259 248 251 244 234 232 224 224 230 239 242 245 234 217 203 194 172 148 161 167 160 164 154 145 134 140 151 159 164 166 165 162 162 162 164
263 257 252 246 227 236 241 240 235 227 208 197 233 245 279 238 231 207 187 174 170 172 183 163 153 143 143 142 139 149 154 160 164 163 161 161 161 164
265 252 236 240 215 223 238 239 234 228 223 194 193 204 211 209 212 222 210 192 177 173 182 171 158 154 151 153 154 161 157 151 156 159 162 166 175 185
280 269 236 175 201 225 248 252 246 246 228 222 212 211 208 208 209 215 220 217 199 186 171 175 171 175 163 149 161 172 170 163 164 162 167 173 187 216
284 284 267 156 202 226 238 233 223 239 233 224 223 217 210 209 210 212 207 216 225 209 180 182 185 183 170 161 160 166 172 171 171 171 166 164 175 182
287 314 294 223 224 223 221 219 222 227 227 224 224 222 215 206 200 203 205 207 212 208 194 198 200 194 194 179 163 164 166 174 181 177 172 176 177 177
252 233 215 222 234 238 200 206 223 227 226 227 226 219 210 201 198 200 199 194 200 195 194 201 205 202 206 189 171 172 173 170 177 182 180 179 183 190
311 271 249 227 220 214 215 220 219 214 217 223 222 217 209 206 203 196 195 197 204 198 188 188 190 190 206 195 186 183 179 174 171 172 179 182 186 190
283 258 250 242 233 226 221 218 218 220 225 225 220 218 213 208 204 201 199 203 208 204 194 179 173 172 183 211 212 195 185 178 167 172 185 187 186 186
252 262 262 254 244 237 237 231 223 216 217 224 223 220 218 214 211 209 207 207 210 206 198 184 183 187 194 198 195 208 197 180 170 175 187 193 191 180
247 266 275 270 263 254 248 242 232 219 213 217 220 221 219 214 212 213 214 213 210 204 199 193 195 202 207 203 185 183 198 188 181 182 184 184 152 115
278 270 269 265 261 256 252 251 244 236 227 223 220 220 220 218 219 219 215 204 216 211 204 203 200 200 204 189 186 176 176 185 189 183 178 175 173 179
293 289 280 271 266 259 255 247 240 234 228 227 226 222 220 220 219 221 223 212 212 217 214 203 181 189 201 200 198 181 168 158 126 92 83 85 186 193
311 305 295 282 270 254 253 252 247 237 229 231 227 225 224 220 222 220 217 221 217 214 212 199 184 191 202 204 199 187 171 168 165 165 154 54 59 74